Location: *
(48.8667°N, 2.3331°E)
Time: 04:00:03
(UTC+00:00)

Cosmos 1300 - Pass Details

Date: 09 April 2020
Orbit: 511 x 515 km, 82.5° (Epoch: 06 June)

Event Time Altitude Azimuth Distance (km) Brightness Sun altitude
Exits shadow 20:17:25 - 192° (SSW) 2,082 5.5 -16.3°
Reaches altitude 10° 20:18:15 10° 192° (SSW) 1,736 5.1 -16.5°
Maximum altitude 20:22:04 79° 280° (W) 530 2.7 -17.0°
Drops below altitude 10° 20:25:55 10° 8° (N) 1,754 5.7 -17.5°
Sets 20:28:04 0° 9° (N) 2,646 6.7 -17.8°
